Watford City, ND

10:24 AM CST on December 10, 2019 (GMT -0600)
Watford City

Weather History for KS25 - October, 2019

Change the Weather History Date:

Friday, October 11, 2019

  Actual Average (WUND) Record (WUND)
Temperature  
Mean Temperature 30 °F -  
Max Temperature 37 °F - - (-1)
Min Temperature 24 °F - - (-1)
Degree Days  
Heating Degree Days 34    
Moisture  
Dew Point 19 °F    
Average Humidity 63    
Maximum Humidity 80    
Minimum Humidity 45    
Precipitation  
Precipitation 0.00 in - - ()
Sea Level Pressure  
Sea Level Pressure 30.09 in    
Wind  
Wind Speed 17 mph (NW)    
Max Wind Speed 32 mph    
Max Gust Speed 40 mph    
Visibility 10 miles    
Events      
Averages and records for this station are not official NWS values.
T = Trace of Precipitation, MM = Missing Value Source: NWS Daily Summary

Daily Weather History Graph

Daily Weather History Graph

Search for Another Location

Airport or City:

Astronomy

Oct. 11, 2019 Rise Set
Actual Time 8:06 AM CDT 7:12 PM CDT
Civil Twilight 7:35 AM CDT 7:43 PM CDT
Nautical Twilight 6:59 AM CDT 8:19 PM CDT
Astronomical Twilight 6:23 AM CDT 8:55 PM CDT
Moon 6:55 PM CDT (10/11) 5:33 AM CDT (10/11)
Length of Visible Light 12h 08m
Length of Day
11h 06m
Waxing Gibbous, 96% of the Moon is Illuminated
Oct 11
Waxing Gibbous
Oct 13
Full
Oct 21
Last Quarter
Oct 27
New
Nov 4
First Quarter

Hourly Weather History & Observations

Time (CDT) Temp. Windchill Dew Point Humidity Pressure Visibility Wind Dir Wind Speed Gust Speed Precip Events Conditions
12:15 AM 28.4 °F 17.5 °F 21.2 °F 74% 30.22 in 10.0 mi NW 13.8 mph 20.7 mph N/A   Partly Cloudy
12:35 AM 28.4 °F 17.5 °F 21.2 °F 74% 30.22 in 10.0 mi WNW 13.8 mph 20.7 mph N/A   Clear
12:55 AM 28.4 °F 17.5 °F 21.2 °F 74% 30.21 in 10.0 mi NW 13.8 mph - N/A   Clear
1:15 AM 28.4 °F 16.2 °F 21.2 °F 74% 30.20 in 10.0 mi NW 17.3 mph - N/A   Clear
1:35 AM 28.4 °F 17.0 °F 21.2 °F 74% 30.19 in 10.0 mi NW 15.0 mph 21.9 mph N/A   Clear
1:55 AM 28.4 °F 17.0 °F 21.2 °F 74% 30.19 in 10.0 mi NW 15.0 mph - N/A   Clear
2:15 AM 28.4 °F 17.0 °F 21.2 °F 74% 30.18 in 10.0 mi NW 15.0 mph 20.7 mph N/A   Clear
2:35 AM 28.4 °F 17.5 °F 21.2 °F 74% 30.18 in 10.0 mi NW 13.8 mph 20.7 mph N/A   Clear
2:55 AM 28.4 °F 17.5 °F 21.2 °F 74% 30.18 in 10.0 mi NW 13.8 mph - N/A   Clear
3:15 AM 28.4 °F 16.2 °F 19.4 °F 69% 30.17 in 10.0 mi NW 17.3 mph - N/A   Clear
3:35 AM 28.4 °F 16.6 °F 19.4 °F 69% 30.16 in 10.0 mi NW 16.1 mph 21.9 mph N/A   Clear
3:55 AM 26.6 °F 14.3 °F 19.4 °F 74% 30.16 in 10.0 mi NW 16.1 mph - N/A   Clear
4:15 AM 26.6 °F 15.2 °F 19.4 °F 74% 30.16 in 10.0 mi NW 13.8 mph 19.6 mph N/A   Clear
4:35 AM 24.8 °F 13.4 °F 19.4 °F 80% 30.16 in 10.0 mi NW 12.7 mph 18.4 mph N/A   Clear
4:55 AM 24.8 °F 12.4 °F 19.4 °F 80% 30.16 in 10.0 mi NW 15.0 mph - N/A   Clear
5:15 AM 24.8 °F 12.9 °F 19.4 °F 80% 30.16 in 10.0 mi NW 13.8 mph 21.9 mph N/A   Clear
5:35 AM 24.8 °F 12.9 °F 19.4 °F 80% 30.16 in 10.0 mi NW 13.8 mph 19.6 mph N/A   Clear
5:55 AM 24.8 °F 12.4 °F 19.4 °F 80% 30.16 in 10.0 mi NW 15.0 mph - N/A   Partly Cloudy
6:15 AM 24.8 °F 12.4 °F 19.4 °F 80% 30.16 in 10.0 mi NW 15.0 mph - N/A   Mostly Cloudy
6:35 AM 24.8 °F 14.0 °F 17.6 °F 74% 30.16 in 10.0 mi NW 11.5 mph 21.9 mph N/A   Overcast
6:55 AM 26.6 °F 14.7 °F 17.6 °F 69% 30.16 in 10.0 mi NW 15.0 mph - N/A   Mostly Cloudy
7:15 AM 24.8 °F 12.9 °F 17.6 °F 74% 30.16 in 10.0 mi NW 13.8 mph 20.7 mph N/A   Partly Cloudy
7:35 AM 24.8 °F 12.9 °F 17.6 °F 74% 30.16 in 10.0 mi NW 13.8 mph - N/A   Scattered Clouds
7:55 AM 24.8 °F 12.9 °F 17.6 °F 74% 30.16 in 10.0 mi NW 13.8 mph - N/A   Overcast
8:55 AM 26.6 °F 13.8 °F 17.6 °F 69% 30.15 in 10.0 mi NW 17.3 mph 26.5 mph N/A   Overcast
9:15 AM 26.6 °F 13.4 °F 17.6 °F 69% 30.15 in 10.0 mi NW 18.4 mph 27.6 mph N/A   Overcast
9:35 AM 26.6 °F 12.4 °F 17.6 °F 69% 30.15 in 10.0 mi NW 21.9 mph - N/A   Scattered Clouds
9:55 AM 26.6 °F 14.3 °F 17.6 °F 69% 30.14 in 10.0 mi NW 16.1 mph 26.5 mph N/A   Clear
10:15 AM 28.4 °F 16.2 °F 17.6 °F 64% 30.14 in 10.0 mi WNW 17.3 mph 25.3 mph N/A   Clear
10:35 AM 30.2 °F 17.8 °F 17.6 °F 60% 30.14 in 10.0 mi NW 19.6 mph 26.5 mph N/A   Clear
10:55 AM 30.2 °F 16.5 °F 17.6 °F 60% 30.13 in 10.0 mi NW 24.2 mph - N/A   Clear
11:15 AM 32.0 °F 19.2 °F 17.6 °F 55% 30.12 in 10.0 mi NW 23.0 mph 31.1 mph N/A   Clear
11:35 AM 32.0 °F 19.5 °F 17.6 °F 55% 30.12 in 10.0 mi NW 21.9 mph - N/A   Clear
11:55 AM 33.8 °F 21.0 °F 17.6 °F 52% 30.11 in 10.0 mi NW 25.3 mph 34.5 mph N/A   Clear
12:15 PM 33.8 °F 20.5 °F 17.6 °F 52% 30.10 in 10.0 mi NW 27.6 mph 34.5 mph N/A   Clear
12:35 PM 33.8 °F 20.8 °F 17.6 °F 52% 30.10 in 10.0 mi NW 26.5 mph 40.3 mph N/A   Clear
12:55 PM 35.6 °F 23.2 °F 17.6 °F 48% 30.09 in 10.0 mi NW 26.5 mph 38.0 mph N/A   Clear
1:15 PM 35.6 °F 23.2 °F 17.6 °F 48% 30.08 in 10.0 mi NW 26.5 mph 39.1 mph N/A   Clear
1:35 PM 35.6 °F 23.2 °F 17.6 °F 48% 30.08 in 10.0 mi NW 26.5 mph 36.8 mph N/A   Partly Cloudy
1:55 PM 35.6 °F 23.0 °F 17.6 °F 48% 30.07 in 10.0 mi NW 27.6 mph 39.1 mph N/A   Partly Cloudy
2:15 PM 35.6 °F 22.7 °F 17.6 °F 48% 30.06 in 10.0 mi NW 28.8 mph 39.1 mph N/A   Scattered Clouds
2:35 PM 35.6 °F 22.7 °F 17.6 °F 48% 30.07 in 10.0 mi NW 28.8 mph 39.1 mph N/A   Scattered Clouds
2:55 PM 35.6 °F 23.2 °F 17.6 °F 48% 30.06 in 10.0 mi NW 26.5 mph 38.0 mph N/A   Scattered Clouds
3:15 PM 37.4 °F 25.9 °F 17.6 °F 45% 30.05 in 10.0 mi NW 25.3 mph 38.0 mph N/A   Scattered Clouds
3:35 PM 35.6 °F 23.4 °F 17.6 °F 48% 30.05 in 10.0 mi NW 25.3 mph 38.0 mph N/A   Partly Cloudy
3:55 PM 35.6 °F 23.4 °F 19.4 °F 52% 30.04 in 10.0 mi NW 25.3 mph 39.1 mph N/A   Scattered Clouds
4:15 PM 37.4 °F 25.2 °F 19.4 °F 48% 30.04 in 10.0 mi NW 28.8 mph 35.7 mph N/A   Scattered Clouds
4:35 PM 35.6 °F 22.1 °F 19.4 °F 52% 30.03 in 10.0 mi NW 32.2 mph - N/A   Partly Cloudy
4:55 PM 35.6 °F 24.2 °F 19.4 °F 52% 30.03 in 10.0 mi NW 21.9 mph 33.4 mph N/A   Scattered Clouds
5:15 PM 37.4 °F 26.1 °F 19.4 °F 48% 30.02 in 10.0 mi NW 24.2 mph 34.5 mph N/A   Mostly Cloudy
5:35 PM 35.6 °F 23.2 °F 19.4 °F 52% 30.02 in 10.0 mi NNW 26.5 mph 33.4 mph N/A   Scattered Clouds
5:55 PM 35.6 °F 24.8 °F 19.4 °F 52% 30.02 in 10.0 mi NW 19.6 mph 35.7 mph N/A   Scattered Clouds
6:15 PM 35.6 °F 25.2 °F 19.4 °F 52% 30.02 in 10.0 mi NW 18.4 mph 32.2 mph N/A   Mostly Cloudy
6:35 PM 35.6 °F 25.2 °F 19.4 °F 52% 30.02 in 10.0 mi NW 18.4 mph 31.1 mph N/A   Unknown
6:55 PM 35.6 °F 25.9 °F 21.2 °F 56% 30.01 in 10.0 mi NW 16.1 mph 25.3 mph N/A   Mostly Cloudy
7:15 PM 35.6 °F 25.9 °F 21.2 °F 56% 30.00 in 10.0 mi NW 16.1 mph 23.0 mph N/A   Mostly Cloudy
7:35 PM 33.8 °F 24.3 °F 21.2 °F 60% 30.00 in 10.0 mi WNW 13.8 mph - N/A   Partly Cloudy
7:55 PM 33.8 °F 24.8 °F 21.2 °F 60% 29.99 in 10.0 mi WNW 12.7 mph 18.4 mph N/A   Clear
8:15 PM 33.8 °F 24.8 °F 21.2 °F 60% 29.98 in 10.0 mi WNW 12.7 mph 19.6 mph N/A   Partly Cloudy
8:35 PM 33.8 °F 24.8 °F 23.0 °F 65% 29.96 in 10.0 mi WNW 12.7 mph 19.6 mph N/A   Partly Cloudy
8:55 PM 32.0 °F 23.0 °F 23.0 °F 69% 29.96 in 10.0 mi WNW 11.5 mph - N/A   Clear
9:15 PM 32.0 °F 21.6 °F 23.0 °F 69% 29.96 in 10.0 mi NW 15.0 mph - N/A   Clear
9:35 PM 32.0 °F 23.0 °F 23.0 °F 69% 29.96 in 10.0 mi NW 11.5 mph 18.4 mph N/A   Clear
9:55 PM 32.0 °F 22.1 °F 23.0 °F 69% 29.96 in 10.0 mi NW 13.8 mph - N/A   Clear
10:15 PM 32.0 °F 22.5 °F 23.0 °F 69% 29.95 in 10.0 mi NW 12.7 mph 20.7 mph N/A   Clear
10:35 PM 32.0 °F 22.1 °F 21.2 °F 64% 29.95 in 10.0 mi NW 13.8 mph 20.7 mph N/A   Clear
10:55 PM 32.0 °F 21.2 °F 21.2 °F 64% 29.94 in 10.0 mi NW 16.1 mph - N/A   Clear
11:15 PM 32.0 °F 22.1 °F 21.2 °F 64% 29.94 in 10.0 mi NW 13.8 mph 23.0 mph N/A   Clear
11:35 PM 32.0 °F 20.8 °F 19.4 °F 60% 29.93 in 10.0 mi NW 17.3 mph - N/A   Clear
11:55 PM 32.0 °F 22.5 °F 19.4 °F 60% 29.92 in 10.0 mi WNW 12.7 mph 20.7 mph N/A   Clear